User: anonymous   Login
Location: Unspecified
(0.0000°N, 0.0000°E)
Time: 21:25:36
(UTC+00:00)
Language:

DOVE 2 - Orbit

View from above orbital plane
View from above orbital plane
View from above satellite
View from above satellite

Ground track
Ground track

The orbit data is extracted from the following two-line orbital elements,

1 39132U 13015C   18052.53930418  .00000436  00000-0  40897-4 0  9992
2 39132  64.8769 205.2819 0032219 236.9806 122.8225 15.06897282266068
Epoch (UTC): 21 February 2018 12:56:35
Eccentricity: 0.0032219
inclination: 64.8769°
perigee height: 523 km
apogee height: 568 km
right ascension of ascending node: 205.2819°
argument of perigee: 236.9806°
revolutions per day: 15.06897282
mean anomaly at epoch: 122.8225°
orbit number at epoch: 26606

The dashed part of the orbit path shows where the satellite is in the earth's shadow,  

DLR